{"data":{"norad_id":27057,"epoch":"2026-09-19T03:26:54.748608Z","epoch_age_seconds":129347,"freshness":"FRESH","line1":"1 27057U 01058C   26262.14368922  .00000008  00000+0 -14226-4 0  9995","line2":"2 27057  82.5470 154.0425 0000826  78.8792 281.2391 12.61617606138359","mean_motion":12.61617606,"eccentricity":8.26e-5,"inclination_deg":82.547,"raan_deg":154.0425,"arg_perigee_deg":78.8792,"mean_anomaly_deg":281.2391,"bstar":-1.4226e-5,"rev_number":13835,"period_min":114.13918077488,"perigee_km":1415.6309871357,"apogee_km":1416.918623966,"semimajor_km":7794.4118055509,"source":"CELESTRAK","updated_at":"2026-09-20T09:00:13.580107Z"}}